Regional Weather Roundup
Issued by NWS

Home | Current Version | Previous Version | Text Only | Print | Product List | Glossary On
Versions: 1 2 3 4 5 6 7 8 9 10 11 12 13 14 15 16 17 18 19 20 21 22 23 24 25 26 27 28 29 30 31 32 33 34 35 36 37 38 39 40 41 42 43 44 45 46 47 48 49 50
329
ASUS44 KJAN 311210
RWRMS

MISSISSIPPI HOURLY WEATHER ROUNDUP
NATIONAL WEATHER SERVICE JACKSON MS
700 AM CDT FRI OCT 31 2014

NOTE: "FAIR: INDICATES FEW OR NO CLOUDS BELOW 12,000 FEET WITH NO
SIGNIFICANT WEATHER AND/OR OBSTRUCTIONS TO VISIBILITY.

MSZ001>002-007>008-010>013-018>021-025>028-034>036-311300-
NORTHWEST MISSISSIPPI

CITY           SKY/WX    TMP DP  RH WIND       PRES   REMARKS
CLARKSDALE     FAIR      54  48  82 NW14      30.03R
CLEVELAND      FAIR      52  48  87 NW8       30.03R
GREENWOOD      CLEAR     47  45  93 CALM      30.01R
6HR MIN TEMP:  46; 6HR MAX TEMP:  51;

GREENVILLE     CLEAR     54  46  74 NW12      30.03R
6HR MIN TEMP:  53; 6HR MAX TEMP:  57;

GRENADA        FAIR      43  43 100 CALM      30.00R
OLIVE BRANCH   PTCLDY    45  45 100 N7        30.01R
OXFORD         FAIR      41  41 100 CALM      30.01R
TUNICA         SUNNY     52  46  82 NW15      30.04R
$$

MSZ003>006-009-014>017-022>024-029>033-037>039-311300-
NORTHEAST MISSISSIPPI

CITY           SKY/WX    TMP DP  RH WIND       PRES   REMARKS
COLUMBUS AFB   CLEAR     44  43  95 S2        29.98S
6HR MIN TEMP:  42; 6HR MAX TEMP:  48;

CORINTH        FOG       43  43 100 CALM      29.99R VSB 1/4
GOLDN TRIANGLE PTCLDY    48  45  87 CALM      29.97F
STARKVILLE     FAIR      41  41 100 CALM      29.98S
TUPELO         CLEAR     46  43  89 CALM      29.97S
6HR MIN TEMP:  46; 6HR MAX TEMP:  54;

$$

MSZ040-058-311300-
CENTRAL MISSISSIPPI

CITY           SKY/WX    TMP DP  RH WIND       PRES   REMARKS
JACKSON INTL   PTCLDY    49  44  83 CALM      30.02R
6HR MIN TEMP:  43; 6HR MAX TEMP:  49;

JACKSON HAWKNS CLEAR     51  45  79 NW7       30.02R
6HR MIN TEMP:  48; 6HR MAX TEMP:  52;

MERIDIAN KEY   PTCLDY    40  38  93 S5        30.01R
6HR MIN TEMP:  40; 6HR MAX TEMP:  43;

MERIDIAN NAS   PTCLDY    43  41  93 VRB3      30.00S
6HR MIN TEMP:  42; 6HR MAX TEMP:  45;

RAYMOND        FAIR      43  39  87 CALM      30.03R
VICKSBURG      CLEAR     42  41  96 NW5       30.05R
6HR MIN TEMP:  41; 6HR MAX TEMP:  47;

$$

MSZ059>079-311300-
SOUTH MISSISSIPPI

CITY           SKY/WX    TMP DP  RH WIND       PRES   REMARKS
BROOKHAVEN     FAIR      46  45  93 CALM      30.05R
COLUMBIA         N/A     39  39 100 MISG      30.02R
HATTIESBURG    PTCLDY    44  42  93 CALM      30.03R
6HR MIN TEMP:  43; 6HR MAX TEMP:  46;

MCCOMB         CLEAR     45  42  89 CALM      30.04R
6HR MIN TEMP:  45; 6HR MAX TEMP:  50;

NATCHEZ        CLEAR     45  41  87 SE3       30.06S
6HR MIN TEMP:  45; 6HR MAX TEMP:  48;

PINE BELT      PTCLDY    45  41  87 W3        30.03S
6HR MIN TEMP:  43; 6HR MAX TEMP:  46;

$$

MSZ080>082-311300-
COASTAL MISSISSIPPI

CITY           SKY/WX    TMP DP  RH WIND       PRES   REMARKS
BAY ST LOUIS   CLEAR     43  39  87 CALM      30.04
BILOXI         CLEAR     52  44  73 NW2       30.03R
6HR MIN TEMP:  52; 6HR MAX TEMP:  56;

PASCAGOULA     MOCLDY    42  40  92 CALM      30.03R
6HR MIN TEMP:  39; 6HR MAX TEMP:  43;

GULFPORT       CLEAR     46  43  89 CALM      30.03R
6HR MIN TEMP:  46; 6HR MAX TEMP:  50;

$$



USA.gov is the U.S. government's official web portal to all federal, state and local government web resources and services.